Flag for U.S.A. Weather past 2 weeks in Pittsburgh, Pennsylvania, U.S.A.

Now
63 °F

Broken clouds.


Feels Like: 63 °F
Forecast: 53 / 67 °F
Wind: 5 mph from Northwest

Location: Allegheny County Airport

Current Time: Sep 16, 2014 at 2:20:53 PM

Latest Report: Sep 16, 2014 at 1:53 PM


Visibility: 10 mi

Pressure: 30.10 "Hg

Humidity: 60%

Dew point: 49 °F

Location of PittsburghLocation

Historic Weather in Pittsburgh — Graph

°F

Pittsburgh temperature yesterday

Maximum temperature yesterday: 67 °F (at 3:53 PM)
Minimum temperature yesterday: 45 °F (at 5:53 AM)
Average temperature yesterday: 57 °F

Past Weeks' High & Low Weather Summary

 TemperatureHumidityPressure
High85 °F (Sep 4, 3:53 PM)97% (Sep 4, 4:00 AM)30.36 "Hg (Sep 4, 4:00 AM)
Low45 °F (Sep 14, 6:53 AM)43% (Sep 14, 4:53 PM)29.77 "Hg (Sep 11, 4:53 AM)
Average66 °F72%30.09 "Hg
* Reported Sep 1 12:53 PM — Sep 16 12:53 PM, Pittsburgh, Weather by CustomWeather, © 2014

Note: Actual official high and low records may vary slightly from our data, if they occured in-between our weather recording intervals... More about our weather records

Advertising

Pittsburgh weather history for previous 24 hours

 ConditionsComfort  
Time TempWeatherWind HumidityBarometerVisibility
12:53 PM
Sep 16
61 °FCloudy.5 mph65%30.11 "Hg10 mi
12:00 PM60 °FBroken clouds.5 mph65%30.11 "Hg10 mi
10:53 AM58 °FPartly sunny.6 mph72%30.13 "Hg10 mi
10:04 AM56 °FScattered clouds.7 mph77%30.12 "Hg10 mi
9:53 AM56 °FBroken clouds.7 mph77%30.13 "Hg10 mi
8:53 AM55 °FMostly cloudy.7 mph87%30.11 "Hg7 mi
7:53 AM54 °FMostly cloudy.6 mph90%30.10 "Hg7 mi
6:53 AM54 °FFog.8 mph90%30.09 "Hg6 mi
5:53 AM56 °FFog.5 mph90%30.06 "Hg3 mi
4:53 AM56 °FFog.3 mph90%30.05 "Hg2 mi
3:53 AM56 °FLight rain. Fog.6 mph90%30.05 "Hg2 mi
2:53 AM58 °FLight rain. Overcast.5 mph81%30.04 "Hg6 mi
1:53 AM59 °FOvercast.7 mph72%30.04 "Hg10 mi
12:53 AM59 °FOvercast.8 mph72%30.04 "Hg10 mi
11:53 PM
Sep 15
59 °FMostly cloudy.8 mph72%30.06 "Hg10 mi
10:53 PM60 °FOvercast.6 mph67%30.06 "Hg10 mi
9:53 PM61 °FPassing clouds.5 mph65%30.06 "Hg10 mi
8:53 PM62 °FClear.6 mph60%30.06 "Hg10 mi
7:53 PM63 °FSunny.5 mph58%30.08 "Hg10 mi
6:53 PM66 °FSunny.8 mph49%30.10 "Hg10 mi
5:53 PM66 °FSunny.7 mph49%30.11 "Hg10 mi
4:53 PM65 °FSunny.8 mph51%30.10 "Hg10 mi
3:53 PM67 °FSunny.9 mph45%30.14 "Hg10 mi
2:53 PM65 °FSunny.12 mph45%30.13 "Hg10 mi
Weather by CustomWeather, © 2014

See weather overviewHow to use our weather pages